Location: Newark
(44.3248°N, 23.7839°E)
Time: 09:34:55
(UTC+00:00)

UNISAT 6 - Pass Details

Date: 23 April 2024
Orbit: 593 x 667 km, 97.7° (Epoch: 29 May)

Event Time Altitude Azimuth Distance (km) Brightness Sun altitude
Rises 00:49:56 0° 114° (ESE) 2,924 ? -24.0°
Reaches altitude 10° 00:53:24 10° 85° (E) 2,003 ? -23.6°
Maximum altitude 00:55:09 12° 61° (ENE) 1,847 ? -23.4°
Drops below altitude 10° 00:56:53 10° 37° (NE) 1,990 ? -23.2°
Sets 01:00:18 0° 8° (N) 2,884 ? -22.8°
